Time,TemperatureF,DewpointF,PressureIn,WindDirection,WindDirectionDegrees,WindSpeedMPH,WindSpeedGustMPH,Humidity,HourlyPrecipIn,Conditions,Clouds,dailyrainin,SoftwareType,DateUTC
2013-02-25 00:01:00,34.0,24.0,29.96,SSW,197,1.0,5.0,66,0.00,,,0.02,,2013-02-25 05:01:00,
2013-02-25 00:11:00,34.0,24.0,29.96,SSW,197,1.0,5.0,66,0.00,,,0.02,,2013-02-25 05:11:00,
2013-02-25 00:22:00,34.0,24.0,29.96,ESE,120,1.0,6.0,66,0.00,,,0.02,,2013-02-25 05:22:00,
2013-02-25 00:32:00,34.0,24.0,29.97,NNW,338,1.0,5.0,66,0.00,,,0.02,,2013-02-25 05:32:00,
2013-02-25 00:42:00,34.0,24.0,29.97,NNW,338,1.0,5.0,66,0.00,,,0.02,,2013-02-25 05:42:00,
2013-02-25 00:52:00,34.0,24.0,29.98,SW,236,0.0,6.0,66,0.00,,,0.02,,2013-02-25 05:52:00,
2013-02-25 01:02:00,34.0,24.0,29.99,WNW,303,1.0,2.0,67,0.00,,,0.02,,2013-02-25 06:02:00,
2013-02-25 01:11:00,34.0,24.0,29.99,WNW,303,1.0,2.0,67,0.00,,,0.02,,2013-02-25 06:11:00,
2013-02-25 01:21:00,34.0,24.0,29.99,West,265,0.0,3.0,67,0.00,,,0.02,,2013-02-25 06:21:00,
2013-02-25 01:32:00,34.0,25.0,30.00,South,191,0.0,6.0,68,0.00,,,0.02,,2013-02-25 06:32:00,
2013-02-25 01:42:00,34.0,25.0,30.00,South,191,0.0,6.0,68,0.00,,,0.02,,2013-02-25 06:42:00,
2013-02-25 01:51:00,34.0,24.0,30.00,NW,324,1.0,5.0,67,0.00,,,0.02,,2013-02-25 06:51:00,
2013-02-25 02:01:00,34.0,25.0,30.01,NNE,17,0.0,3.0,68,0.00,,,0.02,,2013-02-25 07:01:00,
2013-02-25 02:11:00,33.0,24.0,30.01,West,279,0.0,3.0,68,0.00,,,0.02,,2013-02-25 07:11:00,
2013-02-25 02:21:00,33.0,24.0,30.01,West,279,0.0,3.0,68,0.00,,,0.02,,2013-02-25 07:21:00,
2013-02-25 02:32:00,33.0,24.0,30.01,NNE,23,0.0,2.0,68,0.00,,,0.01,,2013-02-25 07:32:00,
2013-02-25 02:42:00,33.0,24.0,30.01,NNE,23,0.0,2.0,68,0.00,,,0.01,,2013-02-25 07:42:00,
2013-02-25 02:51:00,33.0,24.0,30.01,NNW,331,1.0,3.0,68,0.00,,,0.01,,2013-02-25 07:51:00,
2013-02-25 03:01:00,33.0,24.0,30.02,WNW,290,1.0,3.0,69,0.00,,,0.01,,2013-02-25 08:01:00,
2013-02-25 03:11:00,33.0,24.0,30.02,WNW,290,1.0,3.0,69,0.00,,,0.01,,2013-02-25 08:11:00,
2013-02-25 03:21:00,33.0,24.0,30.02,West,274,0.0,3.0,69,0.00,,,0.01,,2013-02-25 08:21:00,
2013-02-25 03:32:00,33.0,24.0,30.02,NW,314,0.0,2.0,70,0.00,,,0.00,,2013-02-25 08:32:00,
2013-02-25 03:42:00,33.0,24.0,30.02,NW,314,0.0,2.0,70,0.00,,,0.00,,2013-02-25 08:42:00,
2013-02-25 03:52:00,33.0,24.0,30.02,South,174,0.0,2.0,70,0.00,,,0.00,,2013-02-25 08:52:00,
2013-02-25 04:02:00,33.0,24.0,30.03,North,0,0.0,3.0,70,0.00,,,0.00,,2013-02-25 09:02:00,
2013-02-25 04:12:00,33.0,24.0,30.03,North,0,0.0,3.0,70,0.00,,,0.00,,2013-02-25 09:12:00,
2013-02-25 04:21:00,33.0,24.0,30.03,NNE,24,0.0,3.0,70,0.00,,,0.00,,2013-02-25 09:21:00,
2013-02-25 04:32:00,33.0,25.0,30.03,SSE,162,1.0,6.0,71,0.00,,,0.00,,2013-02-25 09:32:00,
2013-02-25 04:42:00,33.0,25.0,30.03,SSE,162,1.0,6.0,71,0.00,,,0.00,,2013-02-25 09:42:00,
2013-02-25 04:52:00,33.0,25.0,30.04,ENE,63,0.0,5.0,71,0.00,,,0.00,,2013-02-25 09:52:00,
2013-02-25 05:01:00,33.0,25.0,30.04,North,8,0.0,2.0,71,0.00,,,0.00,,2013-02-25 10:01:00,
2013-02-25 05:11:00,33.0,25.0,30.04,North,6,0.0,1.0,71,0.00,,,0.00,,2013-02-25 10:11:00,
2013-02-25 05:21:00,33.0,25.0,30.04,North,6,0.0,1.0,71,0.00,,,0.00,,2013-02-25 10:21:00,
2013-02-25 05:32:00,33.0,25.0,30.05,South,189,0.0,3.0,72,0.00,,,0.00,,2013-02-25 10:32:00,
2013-02-25 05:42:00,33.0,25.0,30.05,South,189,0.0,3.0,72,0.00,,,0.00,,2013-02-25 10:42:00,
2013-02-25 05:52:00,33.0,25.0,30.06,South,189,0.0,0.0,72,0.00,,,0.00,,2013-02-25 10:52:00,
2013-02-25 06:01:00,32.0,24.0,30.06,West,265,0.0,2.0,73,0.00,,,0.00,,2013-02-25 11:01:00,
2013-02-25 06:11:00,32.0,24.0,30.06,West,265,0.0,2.0,73,0.00,,,0.00,,2013-02-25 11:11:00,
2013-02-25 06:22:00,32.0,24.0,30.06,West,266,0.0,1.0,73,0.00,,,0.00,,2013-02-25 11:22:00,
2013-02-25 06:32:00,32.0,25.0,30.08,South,175,0.0,1.0,74,0.00,,,0.00,,2013-02-25 11:32:00,
2013-02-25 06:42:00,32.0,25.0,30.08,South,175,0.0,1.0,74,0.00,,,0.00,,2013-02-25 11:42:00,
2013-02-25 06:52:00,32.0,25.0,30.08,South,175,0.0,0.0,74,0.00,,,0.00,,2013-02-25 11:52:00,
2013-02-25 07:02:00,32.0,25.0,30.08,South,175,0.0,3.0,76,0.00,,,0.00,,2013-02-25 12:02:00,
2013-02-25 07:11:00,32.0,25.0,30.08,South,175,0.0,3.0,76,0.00,,,0.00,,2013-02-25 12:11:00,
2013-02-25 07:22:00,33.0,26.0,30.08,NW,311,1.0,3.0,75,0.00,,,0.00,,2013-02-25 12:22:00,
2013-02-25 07:32:00,33.0,26.0,30.09,NNW,341,0.0,3.0,76,0.00,,,0.00,,2013-02-25 12:32:00,
2013-02-25 07:42:00,33.0,26.0,30.09,NNW,341,0.0,3.0,76,0.00,,,0.00,,2013-02-25 12:42:00,
2013-02-25 07:54:00,33.0,26.0,30.10,WNW,284,0.0,1.0,76,0.00,,,0.00,,2013-02-25 12:54:00,
2013-02-25 08:02:00,34.0,27.0,30.11,NW,308,0.0,1.0,76,0.00,,,0.00,,2013-02-25 13:02:00,
2013-02-25 08:12:00,34.0,27.0,30.11,NW,308,0.0,1.0,76,0.00,,,0.00,,2013-02-25 13:12:00,
2013-02-25 08:23:00,35.0,28.0,30.11,NW,326,0.0,2.0,75,0.00,,,0.00,,2013-02-25 13:23:00,
2013-02-25 08:32:00,36.0,28.0,30.11,East,79,0.0,3.0,72,0.00,,,0.00,,2013-02-25 13:32:00,
2013-02-25 08:42:00,36.0,28.0,30.11,East,79,0.0,3.0,72,0.00,,,0.00,,2013-02-25 13:42:00,
2013-02-25 08:52:00,37.0,28.0,30.11,North,0,1.0,3.0,71,0.00,,,0.00,,2013-02-25 13:52:00,
2013-02-25 09:03:00,38.0,29.0,30.11,NNE,19,1.0,3.0,69,0.00,,,0.00,,2013-02-25 14:03:00,
2013-02-25 09:17:00,38.0,29.0,30.11,NNE,19,1.0,3.0,69,0.00,,,0.00,,2013-02-25 14:17:00,
2013-02-25 09:32:00,39.0,29.0,30.12,NW,306,0.0,3.0,67,0.00,,,0.00,,2013-02-25 14:32:00,
2013-02-25 09:42:00,39.0,29.0,30.12,NW,306,0.0,3.0,67,0.00,,,0.00,,2013-02-25 14:42:00,
2013-02-25 09:52:00,39.0,29.0,30.12,NNE,12,2.0,5.0,66,0.00,,,0.00,,2013-02-25 14:52:00,
2013-02-25 10:03:00,40.0,29.0,30.13,NNE,14,0.0,3.0,64,0.00,,,0.00,,2013-02-25 15:03:00,
2013-02-25 10:11:00,40.0,29.0,30.13,NNE,14,0.0,3.0,64,0.00,,,0.00,,2013-02-25 15:11:00,
2013-02-25 10:22:00,40.0,28.0,30.13,NNW,340,1.0,5.0,63,0.00,,,0.00,,2013-02-25 15:22:00,
2013-02-25 10:32:00,41.0,29.0,30.13,ESE,116,1.0,5.0,61,0.00,,,0.00,,2013-02-25 15:32:00,
2013-02-25 10:42:00,41.0,29.0,30.13,ESE,116,1.0,5.0,61,0.00,,,0.00,,2013-02-25 15:42:00,
2013-02-25 10:51:00,42.0,28.0,30.13,NE,34,1.0,10.0,58,0.00,,,0.00,,2013-02-25 15:51:00,
2013-02-25 11:02:00,42.0,28.0,30.13,NNE,23,1.0,5.0,57,0.00,,,0.00,,2013-02-25 16:02:00,
2013-02-25 11:12:00,42.0,28.0,30.13,NNE,23,1.0,5.0,57,0.00,,,0.00,,2013-02-25 16:12:00,
2013-02-25 11:22:00,43.0,28.0,30.14,NNE,16,1.0,6.0,56,0.00,,,0.00,,2013-02-25 16:22:00,
2013-02-25 11:32:00,43.0,28.0,30.14,NNE,14,1.0,5.0,55,0.00,,,0.00,,2013-02-25 16:32:00,
2013-02-25 11:42:00,43.0,28.0,30.14,NNE,14,1.0,5.0,55,0.00,,,0.00,,2013-02-25 16:42:00,
2013-02-25 11:51:00,44.0,29.0,30.14,ENE,63,1.0,8.0,55,0.00,,,0.00,,2013-02-25 16:51:00,
2013-02-25 12:02:00,44.0,28.0,30.13,West,281,1.0,8.0,54,0.00,,,0.00,,2013-02-25 17:02:00,
2013-02-25 12:11:00,44.0,28.0,30.13,West,281,1.0,8.0,54,0.00,,,0.00,,2013-02-25 17:11:00,
2013-02-25 12:21:00,44.0,28.0,30.13,North,8,3.0,7.0,54,0.00,,,0.00,,2013-02-25 17:21:00,
2013-02-25 12:32:00,45.0,28.0,30.13,North,357,2.0,7.0,52,0.00,,,0.00,,2013-02-25 17:32:00,
2013-02-25 12:42:00,45.0,28.0,30.13,North,357,2.0,7.0,52,0.00,,,0.00,,2013-02-25 17:42:00,
2013-02-25 12:52:00,45.0,28.0,30.14,NNE,20,0.0,6.0,52,0.00,,,0.00,,2013-02-25 17:52:00,
2013-02-25 13:02:00,44.0,28.0,30.14,SW,229,0.0,6.0,53,0.00,,,0.00,,2013-02-25 18:02:00,
2013-02-25 13:12:00,44.0,28.0,30.14,SW,229,0.0,6.0,53,0.00,,,0.00,,2013-02-25 18:12:00,
2013-02-25 13:21:00,44.0,28.0,30.14,NNE,12,1.0,3.0,52,0.00,,,0.00,,2013-02-25 18:21:00,
2013-02-25 13:33:00,44.0,28.0,30.14,North,350,0.0,3.0,53,0.00,,,0.00,,2013-02-25 18:33:00,
2013-02-25 13:42:00,44.0,28.0,30.14,North,350,0.0,3.0,53,0.00,,,0.00,,2013-02-25 18:42:00,
2013-02-25 13:51:00,45.0,29.0,30.14,ENE,57,0.0,2.0,53,0.00,,,0.00,,2013-02-25 18:51:00,
2013-02-25 14:01:00,45.0,29.0,30.13,WNW,293,0.0,3.0,53,0.00,,,0.00,,2013-02-25 19:01:00,
2013-02-25 14:11:00,45.0,29.0,30.13,WNW,293,0.0,3.0,53,0.00,,,0.00,,2013-02-25 19:11:00,
2013-02-25 14:22:00,44.0,28.0,30.13,North,357,0.0,6.0,53,0.00,,,0.00,,2013-02-25 19:22:00,
2013-02-25 14:32:00,44.0,27.0,30.14,North,5,1.0,6.0,51,0.00,,,0.00,,2013-02-25 19:32:00,
2013-02-25 14:42:00,44.0,27.0,30.14,North,5,1.0,6.0,51,0.00,,,0.00,,2013-02-25 19:42:00,
2013-02-25 14:52:00,44.0,28.0,30.14,North,358,0.0,5.0,53,0.00,,,0.00,,2013-02-25 19:52:00,
2013-02-25 15:01:00,44.0,28.0,30.14,SW,233,0.0,1.0,52,0.00,,,0.00,,2013-02-25 20:01:00,
2013-02-25 15:11:00,44.0,28.0,30.14,SW,233,0.0,1.0,52,0.00,,,0.00,,2013-02-25 20:11:00,
2013-02-25 15:21:00,44.0,27.0,30.14,North,7,0.0,3.0,51,0.00,,,0.00,,2013-02-25 20:21:00,
2013-02-25 15:32:00,45.0,27.0,30.14,ESE,123,0.0,3.0,50,0.00,,,0.00,,2013-02-25 20:32:00,
2013-02-25 15:42:00,45.0,27.0,30.14,ESE,123,0.0,3.0,50,0.00,,,0.00,,2013-02-25 20:42:00,
2013-02-25 15:52:00,45.0,27.0,30.14,ESE,123,0.0,3.0,50,0.00,,,0.00,,2013-02-25 20:52:00,
2013-02-25 16:02:00,44.0,28.0,30.14,SSW,193,1.0,5.0,54,0.00,,,0.00,,2013-02-25 21:02:00,
2013-02-25 16:11:00,44.0,28.0,30.14,SSW,193,1.0,5.0,54,0.00,,,0.00,,2013-02-25 21:11:00,
2013-02-25 16:22:00,44.0,28.0,30.14,SSW,193,1.0,5.0,54,0.00,,,0.00,,2013-02-25 21:22:00,
2013-02-25 16:32:00,44.0,28.0,30.16,SSW,193,0.0,1.0,54,0.00,,,0.00,,2013-02-25 21:32:00,
2013-02-25 16:42:00,44.0,28.0,30.16,SSW,193,0.0,1.0,54,0.00,,,0.00,,2013-02-25 21:42:00,
2013-02-25 16:52:00,44.0,28.0,30.16,WSW,240,1.0,2.0,54,0.00,,,0.00,,2013-02-25 21:52:00,
2013-02-25 17:02:00,44.0,28.0,30.15,West,275,0.0,6.0,52,0.00,,,0.00,,2013-02-25 22:02:00,
2013-02-25 17:11:00,44.0,28.0,30.15,West,275,0.0,6.0,52,0.00,,,0.00,,2013-02-25 22:11:00,
2013-02-25 17:21:00,44.0,28.0,30.15,WNW,285,0.0,1.0,52,0.00,,,0.00,,2013-02-25 22:21:00,
2013-02-25 17:32:00,43.0,27.0,30.16,WNW,285,0.0,1.0,53,0.00,,,0.00,,2013-02-25 22:32:00,
2013-02-25 17:42:00,43.0,27.0,30.16,WNW,285,0.0,1.0,53,0.00,,,0.00,,2013-02-25 22:42:00,
2013-02-25 17:52:00,43.0,27.0,30.16,WNW,285,0.0,0.0,53,0.00,,,0.00,,2013-02-25 22:52:00,
2013-02-25 18:01:00,43.0,28.0,30.16,WNW,294,0.0,2.0,54,0.00,,,0.00,,2013-02-25 23:01:00,
2013-02-25 18:11:00,43.0,28.0,30.16,WNW,294,0.0,2.0,54,0.00,,,0.00,,2013-02-25 23:11:00,
2013-02-25 18:22:00,43.0,28.0,30.17,NNE,22,0.0,2.0,54,0.00,,,0.00,,2013-02-25 23:22:00,
2013-02-25 18:32:00,43.0,28.0,30.18,West,277,0.0,1.0,55,0.00,,,0.00,,2013-02-25 23:32:00,
2013-02-25 18:42:00,43.0,28.0,30.18,West,277,0.0,1.0,55,0.00,,,0.00,,2013-02-25 23:42:00,
2013-02-25 18:52:00,43.0,27.0,30.19,NW,315,0.0,2.0,53,0.00,,,0.00,,2013-02-25 23:52:00,
2013-02-25 19:02:00,42.0,29.0,30.20,NW,318,0.0,3.0,59,0.00,,,0.00,,2013-02-26 00:02:00,
2013-02-25 19:12:00,42.0,29.0,30.20,NW,318,0.0,3.0,59,0.00,,,0.00,,2013-02-26 00:12:00,
2013-02-25 19:22:00,42.0,29.0,30.20,SW,236,0.0,3.0,59,0.00,,,0.00,,2013-02-26 00:22:00,
2013-02-25 19:32:00,42.0,30.0,30.21,NW,318,0.0,2.0,61,0.00,,,0.00,,2013-02-26 00:32:00,
2013-02-25 19:42:00,42.0,30.0,30.21,NW,318,0.0,2.0,61,0.00,,,0.00,,2013-02-26 00:42:00,
2013-02-25 19:51:00,42.0,30.0,30.20,NW,322,0.0,1.0,61,0.00,,,0.00,,2013-02-26 00:51:00,
2013-02-25 20:02:00,42.0,30.0,30.21,WSW,254,0.0,1.0,62,0.00,,,0.00,,2013-02-26 01:02:00,
2013-02-25 20:11:00,42.0,30.0,30.21,WSW,254,0.0,1.0,62,0.00,,,0.00,,2013-02-26 01:11:00,
2013-02-25 20:21:00,42.0,30.0,30.21,West,260,0.0,1.0,63,0.00,,,0.00,,2013-02-26 01:21:00,
2013-02-25 20:32:00,42.0,30.0,30.21,West,272,0.0,0.0,63,0.00,,,0.00,,2013-02-26 01:32:00,
2013-02-25 20:42:00,42.0,30.0,30.21,West,272,0.0,0.0,63,0.00,,,0.00,,2013-02-26 01:42:00,
2013-02-25 20:52:00,41.0,30.0,30.21,West,272,0.0,1.0,64,0.00,,,0.00,,2013-02-26 01:52:00,
2013-02-25 21:01:00,41.0,30.0,30.21,West,272,0.0,0.0,65,0.00,,,0.00,,2013-02-26 02:01:00,
2013-02-25 21:11:00,41.0,30.0,30.21,West,272,0.0,0.0,65,0.00,,,0.00,,2013-02-26 02:11:00,
2013-02-25 21:21:00,41.0,30.0,30.21,West,272,0.0,0.0,65,0.00,,,0.00,,2013-02-26 02:21:00,
2013-02-25 21:32:00,41.0,31.0,30.22,West,272,0.0,0.0,66,0.00,,,0.00,,2013-02-26 02:32:00,
2013-02-25 21:42:00,41.0,31.0,30.22,West,272,0.0,0.0,66,0.00,,,0.00,,2013-02-26 02:42:00,
2013-02-25 21:52:00,41.0,30.0,30.22,West,272,0.0,0.0,65,0.00,,,0.00,,2013-02-26 02:52:00,
2013-02-25 22:02:00,41.0,30.0,30.23,West,272,0.0,1.0,65,0.00,,,0.00,,2013-02-26 03:02:00,
2013-02-25 22:11:00,41.0,30.0,30.23,West,272,0.0,1.0,65,0.00,,,0.00,,2013-02-26 03:11:00,
2013-02-25 22:22:00,41.0,30.0,30.23,NNW,332,1.0,3.0,64,0.00,,,0.00,,2013-02-26 03:22:00,
2013-02-25 22:32:00,41.0,29.0,30.23,NE,47,1.0,3.0,61,0.00,,,0.00,,2013-02-26 03:32:00,
2013-02-25 22:42:00,41.0,29.0,30.23,NE,47,1.0,3.0,61,0.00,,,0.00,,2013-02-26 03:42:00,
2013-02-25 22:52:00,41.0,28.0,30.23,NNE,22,1.0,3.0,60,0.00,,,0.00,,2013-02-26 03:52:00,
2013-02-25 23:02:00,41.0,28.0,30.23,North,2,0.0,3.0,59,0.00,,,0.00,,2013-02-26 04:02:00,
2013-02-25 23:11:00,41.0,28.0,30.23,North,2,0.0,3.0,59,0.00,,,0.00,,2013-02-26 04:11:00,
2013-02-25 23:22:00,41.0,27.0,30.23,NNE,21,1.0,3.0,58,0.00,,,0.00,,2013-02-26 04:22:00,
2013-02-25 23:32:00,41.0,28.0,30.23,North,11,0.0,3.0,59,0.00,,,0.00,,2013-02-26 04:32:00,
2013-02-25 23:42:00,41.0,28.0,30.23,North,11,0.0,3.0,59,0.00,,,0.00,,2013-02-26 04:42:00,
2013-02-25 23:52:00,41.0,28.0,30.22,East,89,1.0,3.0,60,0.00,,,0.00,,2013-02-26 04:52:00,